Probability
2 2 1 2 1 0 0 0 0 0 0 0 0 0 0 0 0 0 0 0 0 0 0 0 0 0 0 0 0 0 0 0 0 0 0 1 2 4 4 4 4 5 5
1 1 1 2 1 0 0 0 0 0 0 0 0 0 0 0 0 0 0 0 0 0 0 0 0 0 0 0 0 0 0 0 0 0 0 1 3 4 4 4 4 4 5
0 0 0 1 1 0 0 0 0 0 0 0 0 0 0 0 0 0 0 0 0 0 0 0 0 0 0 0 0 0 0 0 0 0 1 2 3 3 3 3 4 4 4
0 0 0 0 0 0 0 0 0 0 0 0 0 0 0 0 0 0 0 0 0 0 0 0 0 0 0 0 0 0 0 0 0 1 1 3 3 2 3 3 3 4 4
0 0 0 0 0 0 0 0 0 0 0 0 0 0 0 0 0 0 0 0 0 0 0 0 0 0 0 0 0 0 0 0 0 1 2 2 2 1 2 3 3 3 3
0 0 0 0 0 0 0 0 0 0 0 0 0 0 0 0 0 0 0 0 0 0 0 0 0 0 0 0 0 0 0 0 0 1 2 1 1 1 2 3 3 3 3
0 0 0 0 0 0 0 0 0 0 0 0 0 0 0 0 0 0 0 0 0 0 0 0 0 0 0 0 0 0 0 0 0 0 0 0 0 0 1 2 3 3 3
0 0 0 0 0 0 0 0 0 0 0 0 0 0 0 0 0 0 0 0 0 0 0 0 0 0 0 0 0 0 0 0 0 0 0 0 0 0 1 2 2 3 3
0 0 0 0 0 0 0 0 0 0 0 0 0 0 0 0 0 0 0 0 0 0 0 0 0 0 0 0 0 0 0 0 0 0 0 0 0 0 1 2 2 2 2
0 0 0 0 0 0 0 0 0 0 0 0 0 0 0 0 0 0 0 0 0 0 0 0 0 0 0 0 0 0 0 0 0 0 0 0 0 0 0 1 1 1 1
0 0 0 0 0 0 0 0 0 0 0 0 0 0 0 0 0 0 0 0 0 0 0 0 0 0 0 0 0 0 0 0 0 0 0 0 0 0 0 0 0 0 1
0 0 0 0 0 0 0 0 0 0 0 0 0 0 0 0 0 0 0 0 0 0 0 0 0 0 0 0 0 0 0 0 0 0 0 0 0 0 0 0 0 0 0
0 0 0 0 0 0 0 0 0 0 0 0 0 0 0 0 0 0 0 0 0 0 0 0 0 0 0 0 0 0 0 0 0 0 0 0 0 0 0 0 1 1 1
0 0 0 0 0 0 0 0 0 0 0 0 0 0 0 0 0 0 0 0 0 0 0 0 0 0 0 0 0 0 0 0 0 0 0 0 0 0 0 0 1 2 2
0 0 0 0 0 0 0 0 0 0 0 0 0 0 0 0 0 0 0 0 0 0 0 0 0 0 0 0 0 0 0 0 0 0 0 0 0 0 0 0 0 1 1
0 0 0 0 0 0 0 0 0 0 0 0 0 0 0 0 0 0 0 0 0 0 0 0 0 0 0 0 0 0 0 0 0 0 0 0 0 0 0 0 0 1 1
0 0 0 0 0 0 0 0 0 0 0 0 0 0 0 0 0 0 0 0 0 0 0 0 0 0 0 0 0 0 0 0 0 0 0 0 0 0 0 0 0 0 0
0 0 0 0 0 0 0 0 0 0 0 0 0 0 0 0 0 0 0 0 0 0 0 0 0 0 0 0 0 0 0 0 0 0 0 0 0 0 0 0 0 0 0
0 0 0 0 0 0 0 0 0 0 0 0 0 0 0 0 0 0 0 0 0 0 0 0 0 0 0 0 0 0 0 0 0 0 0 0 0 0 0 0 0 0 0
0 0 0 0 0 0 0 0 0 0 0 0 0 0 0 0 0 0 0 0 0 0 0 0 0 0 0 0 0 0 0 0 0 0 0 0 0 0 0 0 0 0 0
0 0 0 0 0 0 0 0 0 0 0 0 0 0 0 0 0 0 0 0 0 0 0 0 0 0 0 0 0 0 0 0 0 0 0 0 0 0 0 0 0 0 0
0 0 0 0 0 0 0 0 0 0 0 0 0 0 0 0 0 0 0 0 0 0 0 0 0 0 0 0 0 0 0 0 0 0 0 0 0 0 0 0 0 0 0
0 0 0 0 0 0 0 0 0 0 0 0 0 0 0 0 0 0 0 0 0 0 0 0 0 0 0 0 0 0 0 0 0 0 0 0 0 0 0 0 0 0 0
0 0 0 0 0 0 0 0 0 0 0 0 0 0 0 0 0 0 0 0 0 0 0 0 0 0 0 0 0 0 0 0 0 0 0 0 0 0 0 0 0 0 0
0 0 0 0 0 0 0 0 0 0 0 0 0 0 0 0 0 0 0 0 0 0 0 0 0 0 0 0 0 0 0 0 0 0 0 0 0 0 0 0 0 0 0
0 0 0 0 0 0 0 0 0 0 0 0 0 0 0 0 0 0 0 0 0 0 0 0 0 0 0 0 0 0 0 0 0 0 0 0 0 0 0 0 0 0 0
Wind_Speed
4 3 3 2 1 1 1 2 2 2 2 3 4 5 5 5 5 5 5 5 6 6 5 5 5 5 4 4 3 3 4 4 6 6 5 5 6 6 5 5 4 4 2
4 4 3 2 2 1 1 1 1 2 3 4 4 4 5 5 6 6 5 5 6 6 6 6 5 4 5 4 4 4 4 5 6 7 6 5 6 6 6 5 4 3 3
5 4 4 3 2 1 0 1 1 2 2 3 3 4 5 5 5 5 5 6 6 6 6 6 6 6 5 4 5 5 4 4 5 6 6 5 5 5 5 5 5 4 4
6 5 4 2 2 1 0 1 1 2 3 3 3 4 4 5 5 6 6 6 6 6 6 6 6 6 6 6 5 6 5 5 5 5 5 5 5 5 4 4 4 3 4
6 5 4 3 2 1 1 1 1 2 3 3 4 4 4 4 6 8 7 6 7 6 6 6 5 5 6 6 6 7 6 6 5 5 5 5 5 4 4 4 5 4 4
6 5 4 3 2 2 1 1 1 2 3 3 4 4 4 4 7 9 9 7 7 7 7 6 5 4 4 6 6 8 8 8 7 6 6 6 7 6 4 5 5 4 5
7 5 5 4 3 3 2 1 1 2 2 3 4 4 4 4 6 8 9 8 7 7 7 7 6 5 7 6 6 8 8 8 8 8 8 8 8 7 7 7 6 6 6
7 6 5 5 4 3 2 2 3 2 2 3 4 4 4 4 6 8 10 9 6 6 6 7 7 7 6 8 9 8 8 6 6 8 8 8 8 8 8 8 8 7 7
8 7 7 6 5 4 3 3 3 2 3 3 4 5 5 4 4 8 10 7 6 6 6 6 7 7 6 9 10 9 8 6 4 7 8 9 10 11 10 7 6 6 6
9 8 7 6 6 5 4 4 3 3 4 4 4 5 6 6 4 7 10 6 7 6 6 6 4 6 8 10 10 9 9 8 8 8 8 8 9 8 9 8 7 7 6
8 7 7 6 6 6 5 4 4 4 4 5 5 5 5 6 4 5 8 7 7 7 6 6 5 5 8 10 11 9 8 10 10 9 8 7 7 6 6 6 6 6 7
8 8 7 7 6 5 5 5 5 5 5 5 5 5 5 5 5 5 7 8 10 8 7 7 6 7 9 11 9 8 10 11 8 7 6 6 6 6 6 6 7 8 8
8 8 8 7 6 6 6 6 6 5 5 5 5 5 5 5 4 6 7 8 9 8 7 8 10 11 11 9 8 9 10 7 6 7 6 6 6 7 7 6 7 7 9
9 8 8 8 7 7 5 6 6 6 6 6 6 6 6 5 5 5 5 6 7 8 8 8 10 11 10 9 9 8 6 6 6 7 7 7 6 6 6 6 6 6 6
9 8 8 7 7 7 6 6 7 7 6 6 6 6 7 7 6 7 8 8 8 8 9 9 8 7 7 6 6 6 6 5 6 6 6 7 6 6 6 6 6 6 7
9 8 7 6 6 6 6 6 7 8 7 9 10 10 8 8 9 9 11 12 12 12 10 9 8 8 8 8 7 7 6 6 6 7 7 7 7 7 7 7 7 7 7
9 8 6 6 6 7 7 7 7 7 10 11 12 12 12 11 10 11 11 11 12 11 9 9 8 8 8 8 7 7 7 7 7 7 7 7 7 7 7 7 7 7 7
8 7 7 6 6 7 7 7 7 8 7 7 9 12 12 12 12 11 11 10 9 8 8 8 8 8 8 8 8 8 7 7 7 7 8 8 7 8 8 8 8 8 8
7 6 6 6 6 7 7 8 8 9 8 8 7 7 9 10 11 11 10 9 9 9 8 8 8 8 9 9 9 8 8 8 9 8 8 8 8 8 8 8 8 9 9
6 7 7 7 7 7 7 8 8 8 9 8 8 8 6 7 8 8 8 9 9 9 9 9 8 8 9 9 9 8 8 9 9 9 8 8 8 8 9 10 9 9 8
6 6 8 8 8 7 7 8 8 8 9 9 9 8 7 8 9 10 9 9 9 9 9 9 9 8 9 8 8 9 11 9 9 9 8 8 8 9 8 8 9 9 8
6 6 6 7 7 8 8 8 8 9 10 11 9 8 8 9 9 9 9 9 9 9 9 9 9 8 8 8 9 9 10 10 10 9 9 9 9 9 9 9 9 8 8
6 7 7 7 7 8 9 9 9 9 10 10 10 9 8 9 9 10 10 9 9 9 8 8 9 9 9 9 9 9 10 10 9 9 9 10 10 9 9 9 11 10 10
7 8 8 8 8 8 9 9 9 10 10 10 10 9 9 9 9 10 10 9 9 9 9 9 10 12 14 11 9 9 10 10 10 9 12 12 11 10 9 10 10 11 10
7 7 8 8 8 8 9 9 10 10 10 10 10 9 9 9 10 10 10 9 11 11 12 12 10 11 14 15 13 11 10 10 11 11 11 10 12 12 11 11 10 11 10
7 8 8 8 8 8 9 9 10 10 10 10 9 9 9 10 10 10 10 10 10 10 11 11 13 14 15 13 15 14 12 12 13 13 11 10 11 11 12 10 13 11 11
Wind_Direction
162 155 157 146 138 129 64 34 13 11 11 8 5 0 4 4 4 360 352 349 342 342 338 336 334 336 328 324 317 306 298 295 292 300 311 317 318 317 321 315 307 290 253
161 159 153 143 153 146 81 35 8 11 4 359 1 358 0 355 354 353 348 343 339 337 337 332 329 328 325 325 318 312 306 300 296 301 306 314 316 317 318 310 302 293 284
166 169 170 165 159 148 57 24 356 359 356 353 353 352 350 348 347 343 339 337 336 335 334 330 327 324 322 326 313 312 308 304 297 293 300 308 302 312 314 310 305 296 284
173 181 184 177 172 196 66 338 337 340 335 337 344 343 343 340 339 338 335 329 328 328 329 327 325 326 325 325 315 312 308 304 299 294 297 303 304 310 305 310 311 309 292
180 188 190 187 187 204 200 273 325 332 323 329 329 332 340 334 350 340 328 325 322 322 321 320 327 321 328 322 315 314 309 300 299 299 297 301 300 305 309 308 305 310 301
185 186 179 189 185 201 220 259 313 318 324 328 322 329 332 346 357 335 320 316 316 316 319 319 315 293 303 284 291 300 300 296 302 298 297 298 301 302 303 294 297 298 299
186 184 183 189 190 203 213 229 258 277 312 317 319 322 320 350 343 331 324 312 312 316 318 319 318 319 303 308 291 269 267 262 269 286 288 293 297 298 296 291 285 285 286
189 189 189 193 195 199 213 234 254 277 296 301 309 312 317 333 336 328 319 300 307 311 311 312 310 310 330 325 309 299 296 288 280 274 284 291 296 298 291 287 287 285 280
193 195 193 195 197 201 212 229 248 271 281 287 298 302 301 308 332 324 314 305 303 305 308 312 312 309 344 320 302 301 299 294 274 261 277 281 286 280 275 273 274 272 277
195 198 197 199 202 208 218 230 239 254 268 278 286 292 298 304 333 318 311 302 305 307 307 303 308 309 321 313 302 301 300 306 305 293 275 262 268 265 249 254 263 269 276
194 197 200 203 209 214 221 229 239 250 263 273 279 282 288 298 299 302 308 304 309 306 303 304 315 315 307 304 298 298 306 306 296 290 290 290 286 280 271 268 264 263 267
190 197 204 208 211 213 220 233 242 250 257 265 274 281 284 284 291 295 296 296 305 301 300 301 314 318 303 295 290 296 295 290 286 285 285 289 291 290 287 288 285 278 271
194 201 208 211 214 220 223 229 238 246 257 267 274 281 285 290 280 266 276 284 289 289 294 305 302 295 288 280 269 276 279 277 283 284 286 291 293 293 295 291 286 281 277
201 206 210 215 217 221 229 234 239 245 253 263 272 278 284 286 288 291 290 282 270 273 282 284 272 270 264 267 272 267 270 281 286 286 288 291 291 287 285 285 285 286 282
209 212 216 221 224 229 230 240 246 248 257 264 271 275 282 284 300 313 301 297 300 304 304 291 286 285 282 279 280 282 280 277 276 278 280 282 283 284 285 284 280 281 280
216 217 220 222 225 231 238 239 238 249 248 247 257 269 276 276 289 291 289 288 290 292 289 281 282 284 285 285 285 285 281 280 282 282 280 279 280 283 286 284 277 272 273
221 223 224 229 230 235 240 247 252 241 235 241 245 249 256 269 273 275 280 282 280 277 273 277 279 283 282 281 282 282 282 283 284 279 276 276 276 277 278 277 275 273 273
225 228 230 234 239 242 246 249 253 259 258 253 240 237 242 250 259 266 272 277 272 260 267 275 281 284 284 282 278 277 279 281 276 273 272 272 271 273 272 271 271 272 275
227 230 232 237 240 245 249 253 255 258 261 264 265 249 235 242 248 254 256 264 273 277 276 276 277 280 281 279 278 277 275 276 275 275 273 271 271 270 269 270 272 271 270
233 234 238 243 243 245 248 252 255 258 261 264 265 268 264 261 265 264 257 263 270 275 277 276 277 277 279 277 277 274 273 273 272 271 272 270 269 269 270 270 270 269 268
241 234 229 243 248 250 251 254 257 259 261 263 265 267 265 267 269 271 272 269 269 273 275 276 277 277 275 273 271 269 269 271 271 270 271 270 271 269 267 266 267 268 269
249 248 244 246 250 251 254 258 260 261 263 266 270 265 242 255 265 267 268 270 270 271 274 275 274 273 272 269 268 269 269 271 271 272 273 273 273 271 268 265 265 265 264
255 254 253 253 254 253 253 257 260 263 265 267 268 269 263 262 266 269 271 273 273 273 272 270 272 272 269 266 265 268 269 271 273 274 275 276 274 271 268 266 265 265 263
259 259 261 261 260 261 262 263 263 264 266 268 268 267 267 266 268 271 273 274 273 273 272 271 271 272 271 271 270 269 270 274 277 273 273 273 273 270 269 266 263 260 261
265 265 265 265 264 264 267 269 270 269 268 269 269 269 271 271 272 272 273 273 274 273 273 273 271 270 269 271 271 272 275 275 268 270 274 272 270 268 266 265 263 262 259
268 268 268 269 269 269 270 272 272 273 271 270 269 269 270 271 273 274 274 274 274 274 274 273 272 272 273 272 272 273 273 269 263 258 262 267 266 264 264 262 264 259 256